Вернуться в каталог

ONEWEB-0035

АктивенСвязьPO
NORAD 45143·PAYLOAD·🇬🇧 United Kingdom

Запущен Feb 6, 2020 с Baikonur Cosmodrome

Loading…

Ближайшие Пролёты (ближайшие 24 часа)

TLE

СвежийSource: CelesTrak SupGP

Эпоха: Sep 14, 2026, 23:15 UTC

1 45143C 20008N   26257.96927500 -.00001145  00000+0 -32836-2 0  2570
2 45143  87.8905  18.3925 0001743  98.9526  12.5722 13.10374620    15

Отслеживайте ONEWEB-0035 в реальном времени с AllMySat

Download on the App Store